Vertical_Velocity
6 -2 -11 9 4 -5 1 -10 1 3 -9 6 -0 4 0 3 -5 -1 -1 -1 0 2 -1 -1 2 1 -0 1 1 -1 -3 2 -2 -3 -1 -2 1 1 -2 -1 -0 -1 -1 -1 -0 -1 -1 -0 -2
5 2 -3 0 6 3 1 2 9 -2 2 6 -1 -0 1 0 -0 -1 -1 -1 -1 1 -0 -1 2 1 -1 1 -1 -0 -0 1 -3 1 -2 1 -1 -0 -0 0 -0 -0 -2 -2 -2 -0 -1 0 1
0 3 -6 1 -2 1 17 1 14 1 2 15 5 -1 -1 1 2 -1 0 -0 1 1 0 1 -1 1 -1 2 -2 2 1 -1 2 -0 -0 -2 1 -1 -1 -1 -1 -1 -1 -0 0 1 0 -1 -0
1 4 -3 5 0 3 3 -1 4 3 6 4 -5 1 5 5 4 -4 1 1 1 0 -1 2 2 1 1 -2 -1 -2 1 2 2 -4 -0 -2 -0 -2 0 -1 -1 -0 -0 -0 1 -0 2 -0 1
-5 -3 -4 -9 -0 1 14 -4 7 6 1 2 -1 0 4 -1 -8 2 -2 2 -1 2 -2 3 1 2 -2 1 -4 0 2 1 1 -1 -2 -2 -1 -1 -1 -1 -0 -1 -1 -2 0 -2 -2 -2 -1
-5 -1 -2 12 -4 -2 7 3 -5 -0 1 3 2 -4 1 1 -3 -1 3 -3 -2 -0 -1 4 -1 -1 0 0 -2 0 1 1 1 -3 2 -5 -1 -1 0 -2 1 -0 -1 -1 -3 -1 -0 -1 -2
-2 -1 -0 -7 -8 -4 -5 -3 6 0 1 0 4 6 6 -2 -3 -3 1 -3 5 1 1 -1 4 -4 -1 1 0 1 -1 -2 -1 1 -0 -4 -2 0 -2 -1 -0 -2 -1 -1 -3 -2 -1 -3 -1
-2 -2 -1 3 -3 1 3 9 0 5 7 1 -2 6 -0 1 -3 3 -1 7 -1 -2 -3 4 -1 -1 0 -0 -1 -0 1 -3 3 -0 0 -1 -2 0 -2 0 0 -2 0 -1 -2 -1 -0 -0 -2
-6 -3 -4 1 -3 13 6 -3 0 -1 2 -0 5 -2 -2 -0 -1 1 -3 -0 0 -1 3 -1 -0 0 1 -3 0 1 -1 -1 1 0 0 -1 -4 -0 -1 -1 -0 -1 -2 -2 -2 -2 -1 0 -1
0 -9 5 5 1 0 0 -4 0 -4 1 -0 7 1 -1 0 5 3 -7 -1 6 -1 0 2 1 -1 -0 -2 0 1 -2 -2 2 1 -1 -2 -2 -1 -2 0 -1 -0 -2 -2 -1 -1 1 -1 -1
3 4 -1 -0 1 -3 -4 -1 -6 -3 0 13 6 -7 -2 6 6 -1 1 0 1 0 6 -3 -0 -2 0 -1 0 0 -5 -0 1 1 -2 -2 -1 0 -1 -1 -0 -3 -3 -2 -2 -1 -1 -1 1
-9 3 8 11 6 4 1 -2 1 -5 17 -9 -6 -1 7 4 -3 -3 -0 0 -5 8 -2 -1 1 -1 1 1 -0 -2 -6 0 -1 1 -2 -1 0 -0 -2 -1 -3 -1 -3 -2 -0 -1 -0 -0 -1
-7 9 0 3 -0 -0 -11 -4 2 -1 2 -3 -0 3 2 -1 -2 3 -3 3 5 3 -3 -2 0 2 1 -2 -1 -2 -3 0 1 -1 -2 0 -0 -1 0 -1 -1 -3 -1 -0 -1 -1 -1 -2 -2
6 -5 4 -4 7 2 2 9 -22 20 -7 4 5 -4 3 5 2 -7 9 2 3 -5 -0 -3 -1 2 -4 0 -1 -1 -1 0 -1 -1 1 1 -1 -1 -0 -0 -2 -0 -1 -2 -1 -2 -3 -2 -2
5 -4 -2 -2 -0 -4 1 -25 -6 16 -17 -5 7 3 3 -1 -4 6 2 4 -2 -4 1 -1 3 -3 1 -2 -1 -1 -2 -0 -0 1 1 -0 -1 -0 -0 -1 -2 -2 -1 -2 -2 -1 -1 0 -1
-7 -7 -2 9 0 -1 -8 1 6 1 -1 6 5 0 1 0 -1 -6 3 3 1 -0 6 -4 -2 2 -1 -0 -1 -3 -2 0 2 1 1 -1 -0 -1 -0 -2 -1 -1 -1 -1 -1 -2 1 2 1
-7 -10 -4 9 5 -7 -4 5 33 -4 2 4 4 -1 -3 -11 -1 0 3 -0 1 -1 -2 -1 -0 -0 -1 -1 -1 -1 -1 3 1 1 1 0 -2 0 -1 -1 -1 0 1 -1 -2 1 2 2 -0
12 15 8 6 19 5 1 3 12 -3 -0 2 -6 -3 -1 -3 11 1 -2 -2 -4 1 -3 -2 2 0 0 1 1 1 2 1 1 -0 0 -0 -1 -2 -1 -1 -0 -1 -1 -1 0 1 0 2 2
23 -1 -2 3 11 -0 5 -11 3 5 -7 -3 -5 1 1 7 -5 -3 -2 -6 -2 0 -2 3 4 4 0 1 -0 1 0 1 0 -1 1 -2 -2 -0 -1 -0 -1 -2 2 0 -3 -4 -3 -0 2
4 0 2 7 5 -2 2 -1 1 -11 -3 -2 -4 -5 8 4 2 3 0 0 3 -2 -1 -0 -0 -1 2 2 0 0 -1 3 -1 0 -3 -2 0 -1 -0 -2 -1 -1 -1 -1 0 -0 -3 -6 -1
5 -7 9 12 14 1 2 -17 -8 11 -2 -3 -1 3 -4 4 3 -3 0 7 -1 5 2 -0 0 -1 0 0 1 0 1 1 -0 -3 -2 1 -0 -1 -1 -1 -1 -1 -1 -1 -1 -2 -1 -3 -5
-11 34 12 9 8 -0 3 -43 -24 5 -5 -10 1 -3 4 3 1 1 1 -1 3 5 -4 1 -1 -4 1 3 -3 2 1 0 -2 -1 1 -1 -0 -0 0 -1 -0 -0 -1 -2 -2 -1 -1 -2 -0
8 16 16 17 8 21 -6 -26 16 -2 -7 2 2 2 2 3 -4 -3 3 5 4 -3 3 1 -1 -7 1 -1 2 -0 1 0 -2 0 -1 -0 -1 -1 -2 -1 -2 -1 -2 -2 -2 -2 -2 -3 -3
40 4 7 11 11 -42 20 -8 -40 -8 13 2 6 4 3 3 -3 -1 2 -5 4 1 1 0 -1 0 3 -1 0 0 2 1 -0 -2 -2 -1 -1 -1 -2 -1 -0 -1 -1 -2 -2 -3 -3 -4 -4
-14 1 -6 -5 -12 -77 1 -20 28 9 -0 7 12 2 4 -5 -5 -5 -2 2 2 5 5 5 3 2 1 0 0 2 1 -0 -1 -1 -1 -1 -0 -1 -1 0 0 -0 -1 -1 -2 -3 -3 -5 -3
17 33 8 -11 -22 -2 -3 -47 -11 8 4 13 1 5 -6 1 5 5 5 -0 1 1 1 0 -0 2 4 3 1 2 0 1 -2 -1 -3 -1 -1 -0 -1 0 -1 -0 -1 -1 -3 -3 -3 -3 -2
-6 -34 15 22 19 -9 -25 -4 -3 11 9 2 4 -4 10 3 2 3 4 4 4 2 2 2 -1 3 1 2 3 -0 -2 -1 -1 -2 -0 0 -1 -1 0 1 0 1 -1 -2 -3 -2 -3 -2 -3
-13 13 2 -9 -11 -34 -29 -4 -15 2 -1 1 6 9 3 1 2 4 3 5 4 -0 1 -1 1 2 -1 2 0 2 2 -1 -1 -1 -2 -1 -2 -1 0 1 0 1 0 -2 -1 -1 -3 -3 -6
-17 -14 -7 0 2 -19 -13 -12 6 3 13 -0 -4 -2 3 0 -2 -0 -1 3 2 -0 1 0 -1 0 2 -2 2 0 1 3 2 -1 -1 -2 -1 -0 0 -1 -1 -1 -1 -1 -2 -3 -2 -4 -4
3 15 10 26 -12 -19 -8 -12 -7 -11 -2 -3 4 3 -0 0 1 -1 2 -1 -0 1 1 0 1 1 0 -1 -0 2 2 1 1 -0 -2 -1 -1 -2 -2 -1 -1 -0 0 0 -2 -1 -1 -5 -2
Height
5756 5758 5757 5765 5773 5775 5780 5784 5785 5792 5794 5797 5797 5804 5808 5810 5812 5816 5817 5819 5820 5823 5823 5824 5826 5827 5828 5827 5828 5828 5830 5832 5834 5835 5836 5834 5834 5834 5834 5834 5832 5832 5832 5832 5831 5830 5830 5830 5829
5754 5756 5758 5762 5770 5773 5778 5782 5783 5789 5792 5790 5796 5801 5805 5808 5810 5813 5815 5816 5818 5820 5821 5821 5824 5825 5825 5825 5826 5827 5828 5830 5832 5832 5833 5832 5832 5832 5831 5831 5829 5829 5829 5828 5828 5827 5827 5826 5826
5753 5755 5758 5760 5765 5770 5774 5776 5778 5784 5790 5790 5793 5798 5803 5806 5809 5810 5811 5813 5816 5817 5818 5820 5822 5824 5824 5824 5825 5825 5827 5829 5828 5829 5830 5829 5830 5830 5829 5828 5827 5827 5826 5825 5824 5824 5823 5822 5822
5753 5751 5754 5757 5763 5767 5769 5773 5776 5781 5784 5787 5791 5795 5800 5803 5808 5808 5808 5811 5814 5814 5816 5818 5820 5821 5822 5823 5823 5823 5825 5826 5826 5826 5826 5827 5827 5827 5826 5826 5824 5824 5824 5822 5821 5820 5819 5819 5817
5749 5751 5753 5756 5760 5762 5765 5768 5773 5777 5780 5785 5789 5792 5794 5798 5803 5805 5805 5808 5812 5812 5814 5815 5816 5818 5819 5820 5821 5822 5823 5823 5823 5824 5824 5824 5825 5824 5823 5822 5821 5821 5820 5819 5817 5816 5815 5814 5813
5745 5748 5749 5754 5755 5759 5762 5764 5766 5773 5778 5783 5787 5787 5792 5794 5800 5800 5801 5804 5808 5810 5811 5812 5814 5816 5816 5816 5818 5819 5819 5820 5821 5820 5821 5822 5821 5820 5819 5818 5817 5817 5816 5815 5814 5813 5812 5810 5809
5744 5743 5747 5750 5755 5757 5758 5761 5766 5771 5776 5779 5782 5785 5791 5793 5795 5796 5797 5801 5804 5806 5808 5810 5812 5812 5812 5813 5814 5816 5817 5817 5817 5817 5818 5819 5817 5816 5815 5814 5813 5813 5813 5812 5811 5810 5808 5806 5804
5739 5738 5743 5748 5753 5755 5757 5759 5762 5768 5772 5777 5779 5782 5784 5787 5791 5793 5794 5797 5801 5803 5806 5806 5807 5808 5810 5811 5812 5812 5813 5814 5813 5813 5814 5815 5813 5812 5811 5810 5809 5810 5809 5807 5806 5804 5803 5801 5799
5733 5735 5740 5744 5746 5752 5752 5755 5758 5762 5768 5773 5776 5779 5780 5783 5787 5789 5791 5795 5797 5799 5801 5803 5804 5805 5806 5808 5808 5809 5809 5810 5809 5809 5810 5809 5808 5807 5806 5805 5805 5804 5803 5802 5801 5799 5797 5795 5793
5724 5731 5738 5741 5743 5746 5747 5750 5753 5759 5763 5768 5772 5774 5775 5778 5782 5785 5789 5790 5793 5796 5797 5798 5800 5802 5803 5805 5805 5805 5806 5806 5805 5805 5805 5805 5803 5802 5801 5800 5799 5799 5799 5797 5796 5793 5791 5789 5786
5725 5727 5731 5734 5737 5739 5739 5744 5750 5755 5757 5765 5767 5767 5772 5775 5777 5780 5784 5786 5788 5791 5793 5794 5796 5798 5800 5801 5800 5801 5803 5800 5800 5801 5800 5799 5798 5796 5795 5794 5794 5794 5793 5791 5790 5787 5784 5781 5778
5719 5725 5725 5728 5729 5731 5733 5739 5743 5747 5754 5756 5760 5765 5766 5770 5772 5775 5779 5781 5784 5786 5789 5791 5792 5793 5795 5796 5796 5797 5797 5795 5795 5795 5794 5793 5792 5791 5790 5790 5789 5788 5787 5785 5782 5780 5777 5774 5771
5712 5720 5721 5723 5722 5724 5727 5733 5736 5742 5748 5752 5756 5759 5762 5766 5768 5770 5773 5776 5779 5782 5783 5785 5787 5788 5791 5791 5791 5791 5790 5790 5789 5789 5788 5787 5785 5785 5784 5783 5782 5782 5780 5778 5776 5773 5769 5765 5762
5712 5711 5714 5714 5717 5718 5722 5727 5729 5740 5742 5745 5749 5753 5755 5759 5761 5764 5769 5771 5774 5775 5777 5779 5781 5784 5787 5786 5785 5785 5784 5784 5784 5783 5782 5780 5779 5778 5778 5777 5776 5775 5773 5771 5768 5765 5761 5757 5753
5699 5703 5704 5706 5711 5713 5717 5718 5723 5737 5736 5735 5739 5744 5749 5753 5755 5761 5762 5765 5767 5770 5771 5774 5775 5779 5780 5779 5779 5778 5778 5778 5777 5776 5774 5773 5772 5772 5771 5771 5770 5768 5766 5763 5761 5758 5754 5750 5746
5687 5690 5692 5706 5706 5708 5709 5712 5725 5726 5727 5730 5735 5738 5742 5747 5750 5751 5755 5759 5762 5763 5764 5766 5770 5772 5773 5772 5772 5772 5771 5770 5769 5768 5767 5766 5766 5765 5765 5764 5762 5761 5758 5755 5752 5749 5745 5741 5737
5672 5680 5687 5697 5700 5702 5698 5706 5718 5719 5718 5722 5727 5732 5736 5739 5741 5745 5749 5751 5753 5755 5756 5760 5763 5764 5764 5765 5766 5765 5763 5762 5762 5761 5760 5759 5759 5758 5758 5757 5755 5752 5750 5747 5743 5739 5735 5731 5728
5666 5675 5681 5688 5694 5692 5690 5696 5708 5709 5708 5714 5719 5725 5729 5732 5736 5738 5740 5742 5745 5748 5749 5752 5755 5756 5757 5758 5758 5757 5755 5754 5753 5753 5752 5752 5752 5751 5751 5749 5746 5744 5741 5737 5733 5728 5725 5721 5717
5657 5660 5667 5673 5681 5679 5679 5682 5694 5698 5699 5704 5711 5717 5723 5727 5727 5729 5734 5736 5738 5741 5743 5745 5747 5749 5750 5750 5750 5748 5747 5746 5746 5745 5745 5745 5744 5744 5742 5740 5738 5735 5732 5728 5724 5718 5713 5708 5704
5643 5645 5652 5659 5666 5665 5671 5672 5683 5686 5691 5698 5702 5707 5714 5718 5722 5724 5728 5729 5732 5734 5735 5737 5739 5741 5742 5741 5741 5740 5739 5739 5738 5738 5737 5737 5737 5735 5734 5732 5729 5726 5722 5718 5713 5707 5702 5697 5693
5630 5632 5642 5647 5652 5652 5659 5660 5670 5677 5683 5689 5694 5700 5705 5711 5715 5718 5721 5723 5724 5726 5728 5729 5729 5730 5731 5732 5732 5731 5731 5731 5730 5728 5729 5729 5728 5727 5725 5722 5720 5716 5712 5706 5702 5697 5691 5685 5679
5616 5628 5632 5634 5637 5637 5646 5642 5657 5663 5671 5677 5685 5692 5699 5703 5706 5709 5711 5714 5717 5720 5718 5718 5719 5720 5721 5722 5722 5723 5723 5723 5721 5720 5720 5720 5720 5718 5715 5713 5710 5706 5701 5697 5691 5686 5680 5674 5668
5603 5610 5617 5623 5625 5623 5629 5625 5649 5652 5659 5670 5679 5684 5690 5693 5695 5698 5701 5705 5707 5706 5708 5708 5709 5710 5712 5713 5714 5714 5715 5714 5712 5712 5712 5712 5710 5708 5706 5703 5700 5696 5691 5686 5680 5675 5669 5663 5656
5587 5594 5599 5604 5604 5598 5618 5616 5629 5644 5655 5665 5671 5675 5680 5683 5685 5688 5692 5692 5695 5697 5699 5700 5700 5701 5703 5703 5705 5705 5705 5704 5704 5704 5703 5702 5700 5698 5696 5693 5689 5684 5680 5674 5669 5663 5657 5650 5643
5563 5575 5579 5584 5581 5589 5607 5605 5602 5637 5645 5655 5661 5666 5669 5671 5675 5678 5681 5685 5686 5688 5689 5690 5690 5692 5693 5694 5695 5697 5696 5696 5695 5695 5694 5693 5691 5688 5686 5682 5678 5673 5668 5662 5657 5651 5645 5637 5630
5546 5555 5559 5567 5572 5583 5592 5581 5598 5619 5633 5644 5649 5654 5658 5661 5665 5669 5671 5673 5674 5677 5678 5678 5680 5682 5683 5685 5686 5687 5687 5688 5687 5686 5685 5683 5681 5678 5675 5671 5666 5661 5656 5650 5645 5638 5632 5624 5616
5528 5528 5562 5561 5560 5568 5577 5578 5593 5603 5620 5631 5638 5642 5647 5649 5653 5656 5659 5662 5664 5666 5667 5668 5670 5673 5674 5675 5676 5677 5678 5678 5677 5677 5675 5673 5670 5667 5663 5659 5655 5649 5644 5638 5632 5626 5619 5611 5604
5512 5537 5534 5537 5544 5555 5564 5567 5583 5594 5602 5616 5624 5630 5634 5637 5640 5644 5648 5650 5653 5654 5655 5656 5659 5662 5663 5665 5666 5667 5668 5667 5667 5666 5664 5662 5659 5656 5653 5649 5644 5638 5632 5626 5620 5614 5607 5599 5591
5502 5511 5514 5528 5538 5546 5554 5558 5577 5588 5595 5603 5611 5617 5620 5624 5627 5631 5634 5638 5641 5642 5643 5646 5649 5651 5654 5655 5656 5656 5657 5656 5656 5655 5654 5652 5649 5646 5642 5638 5632 5626 5621 5615 5609 5602 5595 5587 5579
5491 5504 5509 5511 5525 5534 5541 5548 5562 5573 5583 5591 5596 5602 5607 5611 5615 5619 5623 5626 5628 5630 5633 5636 5639 5641 5643 5643 5644 5646 5646 5646 5645 5644 5643 5641 5638 5635 5630 5626 5620 5615 5608 5603 5597 5590 5583 5576 5568